Topeka, KS

2:39 AM CST on November 14, 2019 (GMT -0600)
Billard Municipal

Weather History for KTOP - September, 2019

Change the Weather History Date:

Monday, September 16, 2019

  Actual Average Record
Temperature  
Mean Temperature 81 °F 68 °F  
Max Temperature 92 °F 80 °F 101 °F (1978)
Min Temperature 70 °F 56 °F 40 °F (1889)
Degree Days  
Heating Degree Days 0 2  
Month to date heating degree days 0 14  
Since 1 July heating degree days 0 16  
Cooling Degree Days 16 5  
Month to date cooling degree days 204 115  
Year to date cooling degree days 1450 1343  
Growing Degree Days 30 (Base 50)    
Moisture  
Dew Point 68 °F    
Average Humidity 67    
Maximum Humidity 90    
Minimum Humidity 44    
Precipitation  
Precipitation 0.00 in 0.11 in 1.26 in (1905)
Month to date precipitation 1.22 1.95  
Year to date precipitation 42.11 28.52  
Snow  
Snow 0.00 in 0.00 in 0.00 in ()
Month to date snowfall 0.0 0.0  
Year to date snowfall 18.5 11.3  
Since 1 July snowfall T 0.0  
Snow Depth 0.00 in    
Sea Level Pressure  
Sea Level Pressure 30.01 in    
Wind  
Wind Speed 5 mph (SSE)    
Max Wind Speed 14 mph    
Max Gust Speed 18 mph    
Visibility 10 miles    
Events      
T = Trace of Precipitation, MM = Missing Value Source: NWS Daily Summary

Daily Weather History Graph

Daily Weather History Graph

Search for Another Location

Airport or City:

Astronomy

Sep. 16, 2019 Rise Set
Actual Time 7:04 AM CDT 7:29 PM CDT
Civil Twilight 6:37 AM CDT 7:56 PM CDT
Nautical Twilight 6:06 AM CDT 8:27 PM CDT
Astronomical Twilight 5:34 AM CDT 8:59 PM CDT
Moon 9:05 PM CDT (9/16) 9:11 AM CDT (9/16)
Length of Visible Light 13h 18m
Length of Day
12h 24m
Waning Gibbous, 94% of the Moon is Illuminated
Sep 16
Waning Gibbous
Sep 21
Last Quarter
Sep 28
New
Oct 5
First Quarter
Oct 13
Full

Hourly Weather History & Observations

Time (CDT) Temp. Heat Index Dew Point Humidity Pressure Visibility Wind Dir Wind Speed Gust Speed Precip Events Conditions
12:53 AM 77.0 °F - 68.0 °F 74% 30.00 in 10.0 mi South 5.8 mph - N/A   Clear
1:53 AM 75.9 °F - 68.0 °F 76% 30.01 in 10.0 mi South 5.8 mph - N/A   Clear
2:53 AM 75.0 °F - 68.0 °F 79% 30.01 in 10.0 mi South 3.5 mph - N/A   Clear
3:53 AM 71.1 °F - 66.0 °F 84% 30.01 in 10.0 mi Calm Calm - N/A   Clear
4:53 AM 73.9 °F - 66.9 °F 79% 30.02 in 10.0 mi South 3.5 mph - N/A   Clear
5:53 AM 72.0 °F - 66.9 °F 84% 30.02 in 10.0 mi Calm Calm - N/A   Clear
6:53 AM 70.0 °F - 66.0 °F 87% 30.04 in 10.0 mi Calm Calm - N/A   Clear
7:53 AM 72.0 °F - 66.9 °F 84% 30.06 in 9.0 mi Calm Calm - N/A   Clear
8:53 AM 77.0 °F - 69.1 °F 76% 30.06 in 9.0 mi Calm Calm - N/A   Clear
9:53 AM 82.0 °F 84.5 °F 66.9 °F 60% 30.06 in 10.0 mi Variable 5.8 mph - N/A   Clear
10:53 AM 84.9 °F 88.2 °F 68.0 °F 57% 30.06 in 10.0 mi SW 6.9 mph - N/A   Clear
11:53 AM 88.0 °F 92.1 °F 69.1 °F 53% 30.05 in 10.0 mi SSW 6.9 mph - N/A   Clear
12:53 PM 89.1 °F 93.7 °F 69.1 °F 52% 30.04 in 10.0 mi South 6.9 mph - N/A   Clear
1:53 PM 91.0 °F 94.3 °F 66.9 °F 45% 30.00 in 10.0 mi South 11.5 mph - N/A   Clear
2:53 PM 91.9 °F 95.9 °F 68.0 °F 45% 29.99 in 10.0 mi South 11.5 mph - N/A   Clear
3:53 PM 89.1 °F 93.7 °F 69.1 °F 52% 29.98 in 10.0 mi South 6.9 mph - N/A   Clear
4:53 PM 90.0 °F 93.6 °F 68.0 °F 48% 29.97 in 10.0 mi SSE 12.7 mph - N/A   Clear
5:53 PM 89.1 °F 93.7 °F 69.1 °F 52% 29.96 in 10.0 mi SSE 9.2 mph - N/A   Clear
6:53 PM 86.0 °F 90.7 °F 70.0 °F 59% 29.97 in 10.0 mi SE 5.8 mph - N/A   Clear
7:53 PM 81.0 °F 84.9 °F 71.1 °F 72% 29.96 in 10.0 mi ESE 5.8 mph - N/A   Clear
8:53 PM 78.1 °F - 71.1 °F 79% 29.97 in 10.0 mi ESE 4.6 mph - N/A   Clear
9:53 PM 77.0 °F - 70.0 °F 79% 29.98 in 10.0 mi ESE 4.6 mph - N/A   Clear
10:53 PM 75.0 °F - 69.1 °F 82% 29.99 in 10.0 mi SE 3.5 mph - N/A   Clear
11:53 PM 75.0 °F - 69.1 °F 82% 29.99 in 10.0 mi SE 4.6 mph - N/A   Clear